SCP
0 0 0 0 0 0 0 0 0 0 0 0 0 0 0 0 0 0 0 0 0 0 0 0 0 0 0 0 0 0 0 0 0 0 0 0 0 0
0 0 0 0 0 0 0 0 0 0 0 0 0 0 0 0 0 0 0 0 0 0 0 0 0 0 0 0 0 0 0 0 0 0 0 0 0 0
0 0 0 0 0 0 0 0 0 0 0 0 0 0 0 0 0 0 0 0 0 0 0 0 0 0 0 0 0 0 0 0 0 0 0 0 0 0
0 0 0 0 0 0 0 0 0 0 0 0 0 0 0 0 0 0 0 0 0 0 0 0 0 0 0 0 0 0 0 0 0 0 0 0 0 0
0 0 0 0 0 0 0 0 0 0 0 0 0 0 0 0 0 0 0 0 0 0 0 0 0 0 0 0 0 0 0 0 0 0 0 0 0 0
0 0 0 0 0 0 0 0 0 0 0 0 0 0 0 0 0 0 0 0 0 0 0 0 0 0 0 0 0 0 0 0 0 0 0 0 0 0
0 0 0 0 0 0 0 0 0 0 0 0 0 0 0 0 0 0 0 0 0 0 0 0 0 0 0 0 0 0 0 0 0 0 0 0 0 0
0 0 0 0 0 0 0 0 0 0 0 0 0 0 0 0 0 0 0 0 0 0 0 0 0 0 0 0 0 0 0 0 0 0 0 0 0 0
0 0 0 0 0 0 0 0 0 0 0 0 0 0 0 0 0 0 0 0 0 0 0 0 0 0 0 0 0 0 0 0 0 0 0 0 0 0
0 0 0 0 0 0 0 0 0 0 0 0 0 0 0 0 0 0 0 0 0 0 0 0 0 0 0 0 0 0 0 0 0 0 0 0 0 0
0 0 0 0 0 0 0 0 0 0 0 0 0 0 0 0 0 0 0 0 0 0 0 0 0 0 0 0 0 0 0 0 0 0 0 0 0 0
0 0 0 0 0 0 0 0 0 0 0 0 0 0 0 0 0 0 0 0 0 0 0 0 0 0 0 0 0 0 0 0 0 0 0 0 0 0
0 0 0 0 0 0 0 0 0 0 0 0 0 0 0 0 0 0 0 0 0 0 0 0 0 0 0 0 0 0 0 0 0 0 0 0 0 0
0 0 0 0 0 0 0 0 0 0 0 0 0 0 0 0 0 0 0 0 0 0 0 0 0 0 0 0 0 0 0 0 0 0 0 0 0 0
0 0 0 0 0 0 0 0 0 0 0 0 0 0 0 0 0 0 0 0 0 0 0 0 0 0 0 0 0 0 0 0 0 0 0 0 0 0
0 0 0 0 0 0 0 0 0 0 0 0 0 0 0 0 0 0 0 0 0 0 0 0 0 0 0 0 0 0 0 0 0 0 0 0 0 0
0 0 0 0 0 0 0 0 0 0 0 0 0 0 0 0 0 0 0 0 0 0 0 0 0 0 0 0 0 0 0 0 0 0 0 0 0 0
0 0 0 0 0 0 0 0 0 0 0 0 0 0 0 0 0 0 0 0 0 0 0 0 0 0 0 0 0 0 0 0 0 0 0 0 0 0
0 0 0 0 0 0 0 0 0 0 0 0 0 0 0 0 0 0 0 0 0 0 0 0 0 0 0 0 0 0 0 0 0 0 0 0 0 0
0 0 0 0 0 0 0 0 0 0 0 0 0 0 0 0 0 0 0 0 0 0 0 0 0 0 0 0 0 0 0 0 0 0 0 0 0 0
0 0 0 0 0 0 0 0 0 0 0 0 0 0 0 0 0 0 0 0 0 0 0 0 0 0 0 0 0 0 0 0 0 0 0 0 0 0
0 0 0 0 0 0 0 0 0 0 0 0 0 0 0 0 0 0 0 0 0 0 0 0 0 0 0 0 0 0 0 0 0 0 0 0 0 0
0 0 0 0 0 0 0 0 0 0 0 0 0 0 0 0 0 0 0 0 0 0 0 0 0 0 0 0 0 0 0 0 0 0 0 0 0 0
Wind_Speed_500mb
26 26 27 28 28 29 28 26 21 17 22 17 24 23 24 27 28 26 31 35 29 25 23 21 21 20 17 17 18 21 22 23 24 25 24 25 28 35
30 30 30 31 33 34 34 34 31 30 27 15 22 26 34 31 34 39 35 35 30 27 24 21 20 19 19 18 16 16 16 17 19 18 19 22 22 20
33 36 35 33 37 38 38 39 39 38 44 49 37 35 43 40 41 39 39 33 33 32 29 27 24 22 20 19 18 16 16 17 16 16 17 18 20 20
40 40 42 41 41 42 41 45 46 43 45 53 48 39 39 45 40 44 40 38 34 34 30 30 29 28 26 24 23 21 19 16 14 13 12 13 15 15
48 48 47 46 48 47 46 46 47 48 47 51 57 50 46 51 44 42 42 39 37 37 32 31 32 31 30 28 26 26 23 21 17 15 15 16 15 15
55 56 55 54 53 51 50 51 51 51 52 53 55 56 51 49 48 47 40 39 37 36 34 32 29 29 29 28 26 23 20 21 22 22 21 21 22 21
56 58 60 60 58 55 55 55 55 56 56 56 55 56 54 53 54 45 41 37 40 39 34 32 28 24 22 19 19 19 19 19 18 18 17 18 19 20
58 59 57 58 61 59 57 61 63 64 62 61 60 60 59 55 53 52 46 44 37 37 37 33 31 31 29 25 23 22 23 24 24 24 24 24 25 24
72 72 73 66 59 66 71 66 66 66 67 67 66 60 62 55 45 51 50 47 46 36 36 32 32 35 32 33 31 30 30 31 30 30 30 29 28 27
54 56 59 66 70 66 60 62 66 64 66 66 69 71 71 58 50 49 49 44 45 46 50 41 40 39 34 33 28 30 31 31 31 31 30 30 29 30
43 43 45 52 55 56 64 74 74 73 65 65 64 66 64 58 59 51 52 47 49 51 50 48 49 46 42 35 34 31 30 28 28 28 28 29 29 32
49 58 51 41 38 41 51 57 66 77 73 69 67 76 56 60 67 64 60 55 55 48 47 47 43 41 42 39 33 33 32 28 26 28 29 32 33 38
47 50 50 49 49 51 48 48 55 54 48 48 54 52 50 53 55 58 59 59 59 54 42 38 39 37 39 39 45 41 38 37 40 39 38 39 37 37
55 57 56 53 53 57 55 55 55 51 55 49 53 53 49 51 48 49 48 48 47 47 42 48 50 45 45 49 51 51 45 40 42 44 43 43 44 45
50 55 58 62 63 64 67 65 58 56 57 58 56 58 53 49 46 44 43 46 50 53 54 56 58 52 51 57 59 54 48 49 47 46 47 47 49 52
49 50 52 56 61 62 60 60 63 65 61 59 57 66 66 41 45 41 44 44 47 52 55 57 60 61 62 63 59 56 50 45 45 41 43 47 51 57
57 63 67 65 62 60 59 58 56 52 51 53 58 48 52 54 50 45 48 53 59 62 62 56 53 52 60 67 65 64 61 58 56 55 53 62 63 62
56 61 64 60 57 56 56 55 53 51 52 52 51 53 48 59 64 53 50 44 46 45 39 39 38 37 41 48 50 57 58 62 58 58 55 60 67 64
56 60 60 57 53 52 52 52 52 50 45 45 51 43 45 48 48 49 51 46 42 40 39 38 42 44 48 57 52 42 42 41 42 45 47 55 66 67
49 50 50 53 55 52 49 47 47 46 44 42 44 49 48 47 51 57 58 53 40 37 41 39 44 46 50 54 50 43 39 40 38 44 51 56 64 62
46 47 48 49 49 49 50 48 47 46 44 43 42 43 44 40 59 57 45 39 38 41 46 46 45 36 33 38 52 59 54 52 55 57 57 53 57 58
45 46 46 43 40 41 43 46 48 46 42 40 40 42 44 40 48 41 38 40 42 45 48 43 35 32 33 40 52 56 55 53 50 48 49 50 56 58
43 45 46 46 45 45 46 45 44 43 43 40 43 42 43 42 45 44 44 45 44 43 42 44 44 45 50 51 53 56 55 55 52 53 56 52 55 58
Wind_Direction_500mb
298 295 293 292 288 287 284 281 278 300 304 293 283 295 285 281 273 280 293 295 297 290 283 279 277 272 261 254 250 248 247 247 244 242 246 245 248 245
294 293 291 291 288 287 286 283 275 266 267 274 287 287 280 274 280 286 288 287 283 280 277 273 270 266 265 259 253 247 242 243 245 246 242 239 237 228
290 290 289 286 283 283 282 280 274 269 268 281 268 271 275 275 282 282 288 285 282 279 271 266 256 251 248 251 253 249 250 248 243 239 238 244 246 243
288 286 287 287 284 281 276 276 278 273 267 274 279 269 269 276 275 278 282 282 280 273 273 268 266 261 252 243 236 239 241 239 241 240 238 237 238 242
279 278 279 279 280 281 281 278 274 274 269 268 277 277 270 277 279 279 282 279 275 276 270 263 259 257 257 254 254 257 257 250 249 256 256 255 260 254
277 276 276 275 275 276 273 274 275 270 269 270 272 276 274 273 277 279 275 278 278 267 269 267 263 258 254 255 258 259 255 254 256 266 269 265 260 259
277 277 278 278 276 274 272 272 272 270 271 270 268 272 273 271 271 276 274 269 263 270 268 264 260 249 237 237 247 252 257 263 268 271 272 272 269 265
283 283 279 278 279 277 275 273 268 266 266 269 269 267 270 272 274 269 259 262 263 269 266 259 251 248 246 253 258 257 254 258 262 266 269 270 270 271
283 283 282 279 272 277 281 280 274 267 263 262 261 262 268 270 261 263 262 254 254 250 259 248 244 256 252 257 260 258 262 265 265 266 268 269 270 271
285 281 281 284 282 275 269 270 270 270 270 267 264 264 261 261 257 257 261 255 250 241 250 251 248 255 256 257 257 260 262 264 268 271 272 273 274 276
294 291 293 289 286 284 278 276 272 271 269 264 264 266 267 264 248 245 242 237 244 245 248 256 257 260 260 258 266 259 263 257 260 263 267 272 274 278
292 300 305 300 296 295 280 279 276 278 274 268 263 258 259 259 255 247 250 249 248 250 253 250 254 259 272 263 254 263 264 265 263 264 260 263 272 277
284 286 287 286 290 291 295 296 297 283 281 270 269 264 264 258 253 249 247 244 248 251 248 249 253 249 247 258 269 267 264 264 271 273 273 280 284 284
287 287 286 287 285 286 286 284 286 292 281 278 275 271 259 256 256 253 252 248 246 251 251 250 254 251 253 262 267 272 270 265 267 268 269 273 278 285
290 289 285 282 280 279 281 286 281 275 273 280 273 271 258 253 258 257 253 251 248 247 247 245 252 256 257 261 267 266 267 269 269 267 267 269 273 274
293 292 290 290 288 289 289 286 277 274 269 271 279 275 280 272 243 253 262 263 258 257 253 251 252 256 258 258 258 259 261 258 265 262 263 264 269 273
292 289 289 291 290 290 289 288 281 278 270 263 271 282 277 272 257 265 262 259 259 260 262 263 257 253 252 252 250 254 257 261 263 266 263 267 272 279
289 286 287 287 286 287 288 288 287 280 275 274 271 270 276 266 257 249 255 256 259 258 256 254 257 258 262 261 254 256 260 262 265 262 261 270 277 277
281 282 284 289 291 292 292 292 290 287 284 275 269 266 272 268 256 262 262 243 251 259 263 254 246 250 251 257 261 268 265 266 269 258 259 266 277 282
283 281 282 287 290 291 294 295 295 294 292 285 279 273 274 267 265 257 252 240 243 259 266 258 240 237 245 256 266 267 265 272 264 263 268 277 282 284
289 285 285 287 289 289 290 293 293 292 290 286 282 277 270 265 256 242 238 247 258 261 260 260 264 270 264 256 258 263 266 260 262 270 277 276 276 278
296 293 294 294 295 294 292 292 291 288 280 281 283 276 277 261 263 262 259 261 264 262 260 263 266 263 248 256 269 274 275 275 278 277 274 269 269 265
294 295 296 295 295 296 295 291 287 286 288 287 276 275 275 272 262 266 265 266 264 262 263 264 261 259 262 262 265 270 271 271 269 271 271 272 273 274
Wind_Speed_850mb
26 26 27 28 28 29 28 26 21 17 22 17 24 23 24 27 28 26 31 35 29 25 23 21 21 20 17 17 18 21 22 23 24 25 24 25 28 35
30 30 30 31 33 34 34 34 31 30 27 15 22 26 34 31 34 39 35 35 30 27 24 21 20 19 19 18 16 16 16 17 19 18 19 22 22 20
33 36 35 33 37 38 38 39 39 38 44 49 37 35 43 40 41 39 39 33 33 32 29 27 24 22 20 19 18 16 16 17 16 16 17 18 20 20
40 40 42 41 41 42 41 45 46 43 45 53 48 39 39 45 40 44 40 38 34 34 30 30 29 28 26 24 23 21 19 16 14 13 12 13 15 15
48 48 47 46 48 47 46 46 47 48 47 51 57 50 46 51 44 42 42 39 37 37 32 31 32 31 30 28 26 26 23 21 17 15 15 16 15 15
55 56 55 54 53 51 50 51 51 51 52 53 55 56 51 49 48 47 40 39 37 36 34 32 29 29 29 28 26 23 20 21 22 22 21 21 22 21
56 58 60 60 58 55 55 55 55 56 56 56 55 56 54 53 54 45 41 37 40 39 34 32 28 24 22 19 19 19 19 19 18 18 17 18 19 20
58 59 57 58 61 59 57 61 63 64 62 61 60 60 59 55 53 52 46 44 37 37 37 33 31 31 29 25 23 22 23 24 24 24 24 24 25 24
72 72 73 66 59 66 71 66 66 66 67 67 66 60 62 55 45 51 50 47 46 36 36 32 32 35 32 33 31 30 30 31 30 30 30 29 28 27
54 56 59 66 70 66 60 62 66 64 66 66 69 71 71 58 50 49 49 44 45 46 50 41 40 39 34 33 28 30 31 31 31 31 30 30 29 30
43 43 45 52 55 56 64 74 74 73 65 65 64 66 64 58 59 51 52 47 49 51 50 48 49 46 42 35 34 31 30 28 28 28 28 29 29 32
49 58 51 41 38 41 51 57 66 77 73 69 67 76 56 60 67 64 60 55 55 48 47 47 43 41 42 39 33 33 32 28 26 28 29 32 33 38
47 50 50 49 49 51 48 48 55 54 48 48 54 52 50 53 55 58 59 59 59 54 42 38 39 37 39 39 45 41 38 37 40 39 38 39 37 37
55 57 56 53 53 57 55 55 55 51 55 49 53 53 49 51 48 49 48 48 47 47 42 48 50 45 45 49 51 51 45 40 42 44 43 43 44 45
50 55 58 62 63 64 67 65 58 56 57 58 56 58 53 49 46 44 43 46 50 53 54 56 58 52 51 57 59 54 48 49 47 46 47 47 49 52
49 50 52 56 61 62 60 60 63 65 61 59 57 66 66 41 45 41 44 44 47 52 55 57 60 61 62 63 59 56 50 45 45 41 43 47 51 57
57 63 67 65 62 60 59 58 56 52 51 53 58 48 52 54 50 45 48 53 59 62 62 56 53 52 60 67 65 64 61 58 56 55 53 62 63 62
56 61 64 60 57 56 56 55 53 51 52 52 51 53 48 59 64 53 50 44 46 45 39 39 38 37 41 48 50 57 58 62 58 58 55 60 67 64
56 60 60 57 53 52 52 52 52 50 45 45 51 43 45 48 48 49 51 46 42 40 39 38 42 44 48 57 52 42 42 41 42 45 47 55 66 67
49 50 50 53 55 52 49 47 47 46 44 42 44 49 48 47 51 57 58 53 40 37 41 39 44 46 50 54 50 43 39 40 38 44 51 56 64 62
46 47 48 49 49 49 50 48 47 46 44 43 42 43 44 40 59 57 45 39 38 41 46 46 45 36 33 38 52 59 54 52 55 57 57 53 57 58
45 46 46 43 40 41 43 46 48 46 42 40 40 42 44 40 48 41 38 40 42 45 48 43 35 32 33 40 52 56 55 53 50 48 49 50 56 58
43 45 46 46 45 45 46 45 44 43 43 40 43 42 43 42 45 44 44 45 44 43 42 44 44 45 50 51 53 56 55 55 52 53 56 52 55 58
Wind_Direction_850mb
298 295 293 292 288 287 284 281 278 300 304 293 283 295 285 281 273 280 293 295 297 290 283 279 277 272 261 254 250 248 247 247 244 242 246 245 248 245
294 293 291 291 288 287 286 283 275 266 267 274 287 287 280 274 280 286 288 287 283 280 277 273 270 266 265 259 253 247 242 243 245 246 242 239 237 228
290 290 289 286 283 283 282 280 274 269 268 281 268 271 275 275 282 282 288 285 282 279 271 266 256 251 248 251 253 249 250 248 243 239 238 244 246 243
288 286 287 287 284 281 276 276 278 273 267 274 279 269 269 276 275 278 282 282 280 273 273 268 266 261 252 243 236 239 241 239 241 240 238 237 238 242
279 278 279 279 280 281 281 278 274 274 269 268 277 277 270 277 279 279 282 279 275 276 270 263 259 257 257 254 254 257 257 250 249 256 256 255 260 254
277 276 276 275 275 276 273 274 275 270 269 270 272 276 274 273 277 279 275 278 278 267 269 267 263 258 254 255 258 259 255 254 256 266 269 265 260 259
277 277 278 278 276 274 272 272 272 270 271 270 268 272 273 271 271 276 274 269 263 270 268 264 260 249 237 237 247 252 257 263 268 271 272 272 269 265
283 283 279 278 279 277 275 273 268 266 266 269 269 267 270 272 274 269 259 262 263 269 266 259 251 248 246 253 258 257 254 258 262 266 269 270 270 271
283 283 282 279 272 277 281 280 274 267 263 262 261 262 268 270 261 263 262 254 254 250 259 248 244 256 252 257 260 258 262 265 265 266 268 269 270 271
285 281 281 284 282 275 269 270 270 270 270 267 264 264 261 261 257 257 261 255 250 241 250 251 248 255 256 257 257 260 262 264 268 271 272 273 274 276
294 291 293 289 286 284 278 276 272 271 269 264 264 266 267 264 248 245 242 237 244 245 248 256 257 260 260 258 266 259 263 257 260 263 267 272 274 278
292 300 305 300 296 295 280 279 276 278 274 268 263 258 259 259 255 247 250 249 248 250 253 250 254 259 272 263 254 263 264 265 263 264 260 263 272 277
284 286 287 286 290 291 295 296 297 283 281 270 269 264 264 258 253 249 247 244 248 251 248 249 253 249 247 258 269 267 264 264 271 273 273 280 284 284
287 287 286 287 285 286 286 284 286 292 281 278 275 271 259 256 256 253 252 248 246 251 251 250 254 251 253 262 267 272 270 265 267 268 269 273 278 285
290 289 285 282 280 279 281 286 281 275 273 280 273 271 258 253 258 257 253 251 248 247 247 245 252 256 257 261 267 266 267 269 269 267 267 269 273 274
293 292 290 290 288 289 289 286 277 274 269 271 279 275 280 272 243 253 262 263 258 257 253 251 252 256 258 258 258 259 261 258 265 262 263 264 269 273
292 289 289 291 290 290 289 288 281 278 270 263 271 282 277 272 257 265 262 259 259 260 262 263 257 253 252 252 250 254 257 261 263 266 263 267 272 279
289 286 287 287 286 287 288 288 287 280 275 274 271 270 276 266 257 249 255 256 259 258 256 254 257 258 262 261 254 256 260 262 265 262 261 270 277 277
281 282 284 289 291 292 292 292 290 287 284 275 269 266 272 268 256 262 262 243 251 259 263 254 246 250 251 257 261 268 265 266 269 258 259 266 277 282
283 281 282 287 290 291 294 295 295 294 292 285 279 273 274 267 265 257 252 240 243 259 266 258 240 237 245 256 266 267 265 272 264 263 268 277 282 284
289 285 285 287 289 289 290 293 293 292 290 286 282 277 270 265 256 242 238 247 258 261 260 260 264 270 264 256 258 263 266 260 262 270 277 276 276 278
296 293 294 294 295 294 292 292 291 288 280 281 283 276 277 261 263 262 259 261 264 262 260 263 266 263 248 256 269 274 275 275 278 277 274 269 269 265
294 295 296 295 295 296 295 291 287 286 288 287 276 275 275 272 262 266 265 266 264 262 263 264 261 259 262 262 265 270 271 271 269 271 271 272 273 274